Location: Engelmannsreuth
(49.8125°N, 11.6497°E)
Time: 13:34:06
(UTC+00:00)

STARLINK-1133 - Visible Passes

Search period start: 10 July 2020 00:00
Search period end: 20 July 2020 00:00
Orbit: 549 x 550 km, 53.0° (Epoch: 09 July)

Date Brightness Start Highest point End Pass type
(mag) Time Alt. Az. Time Alt. Az. Time Alt. Az.
10 Jul 3.5 01:08:45 10° WNW 01:12:53 65° SSW 01:16:59 10° SE visible
10 Jul 3.6 20:04:02 10° SW 20:08:07 61° SSE 20:12:13 10° ENE visible
10 Jul 4.2 21:43:40 10° W 21:47:47 59° N 21:51:53 10° ENE visible
10 Jul 4.1 23:23:35 10° WNW 23:27:42 62° NNE 23:31:50 10° E visible
11 Jul 3.7 01:03:15 10° WNW 01:07:18 53° SSW 01:11:21 10° SE visible
11 Jul 3.6 19:58:22 10° WSW 20:02:30 74° SSE 20:06:39 10° ENE visible
11 Jul 4.3 21:38:09 10° W 21:42:14 56° N 21:46:20 10° ENE visible
11 Jul 3.9 23:18:00 10° WNW 23:22:10 68° NNE 23:26:17 10° E visible
12 Jul 3.9 00:57:42 10° WNW 01:01:39 43° SW 01:05:34 10° SE visible
12 Jul 4.4 21:32:33 10° W 21:36:38 54° N 21:40:43 10° ENE visible
12 Jul 3.7 23:12:20 10° WNW 23:16:31 76° NNE 23:20:39 10° ESE visible
13 Jul 4.2 00:52:06 10° WNW 00:55:53 34° SW 00:57:40 23° S visible
13 Jul 4.4 21:26:52 10° WNW 21:30:57 53° N 21:35:01 10° E visible
13 Jul 3.6 23:06:37 10° WNW 23:10:47 86° NNE 23:14:08 15° ESE visible
14 Jul 4.6 00:46:29 10° W 00:49:39 27° SW 00:49:39 27° SW visible
14 Jul 4.3 21:21:07 10° WNW 21:25:12 54° N 21:29:16 10° E visible
14 Jul 3.5 23:00:47 10° WNW 23:04:57 82° SSW 23:07:03 28° ESE visible
15 Jul 5.3 00:40:51 10° W 00:42:35 18° WSW 00:42:35 18° WSW visible
15 Jul 4.3 21:15:15 10° WNW 21:19:21 56° N 21:23:27 10° E visible
15 Jul 3.5 22:54:54 10° WNW 22:59:03 69° SSW 23:00:18 42° SE visible
16 Jul 5.8 00:35:15 10° W 00:35:52 12° W 00:35:52 12° W visible
16 Jul 4.1 21:09:19 10° WNW 21:13:26 60° N 21:17:32 10° E visible
16 Jul 3.6 22:48:57 10° WNW 22:53:02 57° SSW 22:53:43 49° S visible
17 Jul 4.0 21:03:18 10° WNW 21:07:26 65° NNE 21:11:34 10° E visible
17 Jul 3.9 22:42:56 10° WNW 22:46:56 46° SW 22:47:12 45° SSW visible
18 Jul 3.8 20:57:11 10° WNW 21:01:21 73° NNE 21:05:09 12° ESE visible
18 Jul 4.2 22:36:53 10° WNW 22:40:43 37° SW 22:40:43 37° SW visible
19 Jul 3.6 20:51:00 10° WNW 20:55:10 82° NNE 20:58:40 14° ESE visible
19 Jul 4.6 22:30:48 10° W 22:34:14 30° SW 22:34:14 30° SW visible
